Evansville, IN

10:27 PM CDT on May 24, 2018 (GMT -0500)
Evansville Regional

Weather History for KEVV - May, 2013

Change the Weather History Date:

Friday, May 10, 2013

  Actual Average Record
Temperature  
Mean Temperature 66 °F 64 °F  
Max Temperature 73 °F 75 °F 88 °F (1979)
Min Temperature 58 °F 53 °F 31 °F (1966)
Degree Days  
Heating Degree Days 0 4  
Month to date heating degree days 32 43  
Since 1 July heating degree days 4480 4498  
Cooling Degree Days 1 2  
Month to date cooling degree days 12 17  
Year to date cooling degree days 46 44  
Growing Degree Days 17 (Base 50)    
Moisture  
Dew Point 61 °F    
Average Humidity 79    
Maximum Humidity 93    
Minimum Humidity 64    
Precipitation  
Precipitation 0.55 in 0.17 in 1.96 in (1970)
Month to date precipitation 2.50 1.72  
Year to date precipitation 19.97 16.60  
Snow  
Snow 0.00 in 0.00 in 0.00 in (2002)
Month to date snowfall 0.0 0.0  
Since 1 July snowfall 12.3 11.8  
Snow Depth 0.00 in    
Sea Level Pressure  
Sea Level Pressure 29.89 in    
Wind  
Wind Speed 6 mph (WSW)    
Max Wind Speed 16 mph    
Max Gust Speed 21 mph    
Visibility 8 miles    
Events Rain , Thunderstorm    
T = Trace of Precipitation, MM = Missing Value Source: NWS Daily Summary

Daily Weather History Graph

Daily Weather History Graph

Search for Another Location

Airport or City:

Astronomy

May. 10, 2013 Rise Set
Actual Time 5:43 AM CDT 7:49 PM CDT
Civil Twilight 5:14 AM CDT 8:18 PM CDT
Nautical Twilight 4:39 AM CDT 8:54 PM CDT
Astronomical Twilight 4:00 AM CDT 9:33 PM CDT
Moon 6:08 AM CDT (5/10) 8:38 PM CDT (5/10)
Length of Visible Light 15h 03m
Length of Day
14h 05m
New Moon, 0% of the Moon is Illuminated
May 10
New Moon
May 17
First Quarter
May 24
Full
May 31
Last Quarter
Jun 8
New

Hourly Weather History & Observations

Time (CDT) Temp. Dew Point Humidity Pressure Visibility Wind Dir Wind Speed Gust Speed Precip Events Conditions
12:54 AM 66.9 °F 59.0 °F 76% 29.92 in 10.0 mi SSW 5.8 mph - N/A   Clear
1:54 AM 66.0 °F 59.0 °F 78% 29.91 in 10.0 mi SSW 5.8 mph - N/A   Clear
2:54 AM 66.0 °F 57.9 °F 75% 29.89 in 10.0 mi South 5.8 mph - N/A   Clear
3:54 AM 64.0 °F 57.9 °F 80% 29.88 in 10.0 mi SW 3.5 mph - N/A   Clear
4:54 AM 66.0 °F 59.0 °F 78% 29.88 in 10.0 mi SSW 3.5 mph - N/A   Mostly Cloudy
5:54 AM 64.0 °F 59.0 °F 84% 29.87 in 10.0 mi Calm Calm - N/A   Partly Cloudy
6:54 AM 64.4 °F 60.8 °F 88% 29.90 in 8.0 mi SSE 8.1 mph - N/A Rain Light Rain
7:54 AM 64.4 °F 60.8 °F 88% 29.89 in 6.0 mi Calm Calm - N/A Rain Light Rain
8:30 AM 64.4 °F 62.6 °F 94% 29.90 in 4.0 mi Calm Calm - 0.02 in Rain Light Rain
8:54 AM 64.9 °F 62.1 °F 90% 29.90 in 5.0 mi Calm Calm - 0.04 in Rain Light Rain
9:07 AM 64.4 °F 62.6 °F 94% 29.91 in 4.0 mi South 4.6 mph - 0.00 in Rain Light Rain
9:54 AM 64.9 °F 62.1 °F 90% 29.90 in 4.0 mi SSE 4.6 mph - 0.00 in   Overcast
10:11 AM 64.4 °F 62.6 °F 94% 29.90 in 1.8 mi SSW 3.5 mph - 0.02 in Rain Heavy Rain
10:23 AM 64.4 °F 62.6 °F 94% 29.90 in 1.0 mi South 4.6 mph - 0.16 in Rain Heavy Rain
10:29 AM 64.4 °F 62.6 °F 94% 29.90 in 2.0 mi South 6.9 mph - 0.17 in Rain Rain
10:37 AM 66.2 °F 62.6 °F 88% 29.90 in 6.0 mi South 6.9 mph - 0.17 in Rain Light Rain
10:54 AM 66.0 °F 63.0 °F 90% 29.89 in 8.0 mi South 8.1 mph - 0.17 in   Overcast
11:01 AM 66.2 °F 62.6 °F 88% 29.90 in 8.0 mi South 5.8 mph - N/A   Overcast
11:12 AM 66.2 °F 62.6 °F 88% 29.90 in 9.0 mi South 8.1 mph - N/A   Overcast
11:45 AM 66.2 °F 62.6 °F 88% 29.90 in 10.0 mi SSW 8.1 mph - 0.00 in Rain Light Rain
11:54 AM 66.2 °F 62.6 °F 88% 29.90 in 6.0 mi South 8.1 mph - N/A Rain Rain
11:58 AM 66.2 °F 62.6 °F 88% 29.90 in 1.8 mi SSW 9.2 mph - 0.02 in Rain Heavy Rain
12:02 PM 64.4 °F 62.6 °F 94% 29.90 in 0.8 mi South 8.1 mph - 0.10 in Rain Heavy Rain
12:09 PM 64.4 °F 62.6 °F 94% 29.90 in 1.0 mi WSW 9.2 mph - 0.25 in Rain Rain
12:13 PM 66.2 °F 62.6 °F 88% 29.90 in 2.5 mi West 6.9 mph - 0.26 in Rain Rain
12:16 PM 64.4 °F 62.6 °F 94% 29.89 in 1.8 mi SW 5.8 mph - 0.27 in Rain Heavy Rain
12:22 PM 64.4 °F 62.6 °F 94% 29.89 in 1.8 mi SSW 9.2 mph - 0.32 in Rain Rain
12:24 PM 64.4 °F 62.6 °F 94% 29.89 in 2.5 mi South 9.2 mph - 0.32 in Rain Light Rain
12:30 PM 66.2 °F 62.6 °F 88% 29.88 in 8.0 mi South 9.2 mph - 0.32 in Rain Light Rain
12:50 PM 66.2 °F 62.6 °F 88% 29.88 in 10.0 mi SSW 8.1 mph 17.3 mph 0.32 in Rain Light Rain
12:54 PM 66.9 °F 63.0 °F 87% 29.87 in 10.0 mi SW 11.5 mph - 0.32 in Rain Light Rain
1:24 PM 68.0 °F 62.6 °F 83% 29.87 in 10.0 mi West 9.2 mph - 0.00 in   Overcast
1:54 PM 68.0 °F 61.0 °F 78% 29.87 in 10.0 mi NW 5.8 mph - 0.00 in   Mostly Cloudy
2:10 PM 68.0 °F 60.8 °F 78% 29.87 in 10.0 mi West 5.8 mph - N/A   Overcast
2:26 PM 68.0 °F 60.8 °F 78% 29.87 in 10.0 mi West 3.5 mph - 0.00 in Rain Light Rain
2:54 PM 69.1 °F 61.0 °F 75% 29.86 in 10.0 mi West 4.6 mph - 0.00 in   Mostly Cloudy
3:01 PM 69.8 °F 60.8 °F 73% 29.87 in 10.0 mi WSW 3.5 mph - N/A   Overcast
3:08 PM 69.8 °F 60.8 °F 73% 29.87 in 10.0 mi West 6.9 mph - N/A   Overcast
3:54 PM 72.0 °F 61.0 °F 68% 29.84 in 10.0 mi West 4.6 mph - N/A   Mostly Cloudy
4:54 PM 73.0 °F 61.0 °F 66% 29.83 in 10.0 mi West 4.6 mph - N/A   Clear
5:54 PM 70.0 °F 61.0 °F 73% 29.84 in 10.0 mi WSW 4.6 mph - N/A   Mostly Cloudy
6:27 PM 69.8 °F 62.6 °F 78% 29.85 in 10.0 mi SW 10.4 mph - 0.00 in Rain , Thunderstorm Light Rain
6:36 PM 68.0 °F 62.6 °F 83% 29.86 in 9.0 mi WNW 16.1 mph 20.7 mph 0.00 in Rain Light Rain
6:41 PM 66.2 °F 60.8 °F 83% 29.85 in 10.0 mi NNW 13.8 mph 20.7 mph 0.00 in Rain , Thunderstorm Light Rain
6:54 PM 64.9 °F 61.0 °F 87% 29.85 in 8.0 mi NW 9.2 mph - 0.01 in Rain , Thunderstorm Light Rain
7:21 PM 64.4 °F 62.6 °F 94% 29.86 in 10.0 mi North 5.8 mph - 0.00 in   Mostly Cloudy
7:30 PM 64.4 °F 62.6 °F 94% 29.86 in 10.0 mi NW 4.6 mph - 0.00 in Thunderstorm Mostly Cloudy
7:45 PM 64.4 °F 60.8 °F 88% 29.88 in 10.0 mi WNW 3.5 mph - 0.00 in   Scattered Clouds
7:54 PM 64.9 °F 61.0 °F 87% 29.88 in 10.0 mi West 4.6 mph - 0.00 in   Scattered Clouds
8:54 PM 64.0 °F 57.9 °F 80% 29.90 in 10.0 mi NNW 9.2 mph - N/A   Scattered Clouds
9:54 PM 63.0 °F 55.9 °F 78% 29.94 in 10.0 mi NW 6.9 mph - N/A   Mostly Cloudy
10:01 PM 62.6 °F 55.4 °F 77% 29.94 in 10.0 mi NW 10.4 mph - N/A   Overcast
10:54 PM 61.0 °F 55.0 °F 81% 29.94 in 10.0 mi NNW 10.4 mph - N/A   Overcast
11:54 PM 60.1 °F 53.1 °F 78% 29.95 in 10.0 mi NNW 8.1 mph - N/A   Overcast